DW8534 Weather Reports


Display with metric or nautical units.
time (UTC)temp
F
wind
direction
speed
MPH
gust
MPH
rain 1hr
in
rain 24hr
in
rain mn
in
humidity
%
barometer
mb
20260831163035 92 159 4.0 0.0 0.00 0.00 0.00 48 1013.1
20260831161532 91 137 3.0 0.0 0.00 0.00 0.00 48 1013.2
20260831160040 90 140 4.0 0.0 0.00 0.00 0.00 51 1013.3
20260831154526 89 180 4.0 0.0 0.00 0.00 0.00 52 1013.3
20260831153044 88 196 5.0 0.0 0.00 0.00 0.00 57 1013.1
20260831151520 87 205 6.0 0.0 0.00 0.00 0.00 59 1013.0
20260831150016 86 200 6.0 0.0 0.00 0.00 0.00 63 1012.9
20260831144513 85 207 7.0 0.0 0.00 0.00 0.00 66 1012.8
20260831143011 84 242 6.0 0.0 0.00 0.00 0.00 66 1012.8
20260831141518 83 208 5.0 0.0 0.00 0.00 0.00 69 1012.8
20260831140013 82 181 5.0 0.0 0.00 0.00 0.00 71 1012.8
20260831134508 81 221 4.0 0.0 0.00 0.00 0.00 74 1012.6
20260831133007 80 203 4.0 0.0 0.00 0.00 0.00 77 1012.3
20260831131510 79 181 2.0 0.0 0.00 0.00 0.00 79 1012.3
20260831130005 78 120 2.0 0.0 0.00 0.00 0.00 80 1012.2
20260831124506 78 166 2.0 0.0 0.00 0.00 0.00 80 1012.0
20260831123004 78 175 2.0 0.0 0.00 0.00 0.00 79 1011.8
20260831121512 78 180 3.0 0.0 0.00 0.00 0.00 79 1011.3
20260831120005 77 189 3.0 0.0 0.00 0.00 0.00 78 1011.2
20260831114501 77 181 2.0 0.0 0.00 0.00 0.00 77 1011.1
20260831113101 78 153 2.0 0.0 0.00 0.00 0.00 77 1010.9
20260831111601 78 154 2.0 0.0 0.00 0.00 0.00 76 1010.8
20260831110058 78 159 2.0 0.0 0.00 0.00 0.00 75 1010.8
20260831104556 79 161 1.0 0.0 0.00 0.00 0.00 74 1010.7
20260831103054 79 161 1.0 0.0 0.00 0.00 0.00 74 1010.7
20260831101558 80 162 2.0 0.0 0.00 0.00 0.00 73 1010.7
20260831100053 80 151 2.0 0.0 0.00 0.00 0.00 72 1010.7
20260831094601 81 161 3.0 0.0 0.00 0.00 0.00 71 1010.6
20260831093048 81 183 3.0 0.0 0.00 0.00 0.00 70 1010.6
20260831091544 82 179 3.0 0.0 0.00 0.00 0.00 70 1010.5
20260831090043 82 181 3.0 0.0 0.00 0.00 0.00 69 1010.4
20260831084547 82 192 5.0 0.0 0.00 0.00 0.00 68 1010.3
20260831083051 83 199 6.0 0.0 0.00 0.00 0.00 67 1010.2
20260831081545 83 182 5.0 0.0 0.00 0.00 0.00 65 1010.2
20260831080038 83 185 4.0 0.0 0.00 0.00 0.00 64 1010.2
20260831074538 83 198 5.0 0.0 0.00 0.00 0.00 62 1010.2
20260831073038 83 192 4.0 0.0 0.00 0.00 0.00 61 1010.2
20260831071536 84 182 4.0 0.0 0.00 0.00 0.00 60 1010.2
20260831070055 84 184 5.0 0.0 0.00 0.00 0.00 58 1010.3
20260831064535 84 195 4.0 0.0 0.00 0.00 0.00 56 1010.3
20260831063033 84 171 3.0 0.0 0.00 0.00 0.00 55 1010.2
20260831061532 83 142 2.0 0.0 0.00 0.00 0.00 56 1010.2
20260831060030 82 107 0.0 0.0 0.00 0.00 0.00 56 1010.3
20260831054530 82 107 0.0 0.0 0.00 0.00 0.00 56 1010.2
20260831053029 83 107 0.0 0.0 0.00 0.00 0.00 56 1010.2
20260831051544 83 107 0.0 0.0 0.00 0.00 0.00 56 1010.2
20260831050025 83 107 1.0 0.0 0.00 0.00 0.00 55 1010.1
20260831044525 84 107 1.0 0.0 0.00 0.00 0.00 54 1010.0
20260831043024 85 107 1.0 0.0 0.00 0.00 0.00 53 1010.1
20260831041530 85 107 2.0 0.0 0.00 0.00 0.00 52 1010.2
20260831040039 86 109 1.0 0.0 0.00 0.00 0.00 51 1010.0
20260831034523 86 109 0.0 0.0 0.00 0.00 0.00 50 1009.7
20260831033025 87 109 1.0 0.0 0.00 0.00 0.00 50 1009.7
20260831031524 87 109 1.0 0.0 0.00 0.00 0.00 50 1009.7
20260831030022 88 109 1.0 0.0 0.00 0.00 0.00 48 1009.6
20260831024521 88 109 1.0 0.0 0.00 0.00 0.00 47 1009.3
20260831023034 89 109 0.0 0.0 0.00 0.00 0.00 47 1009.1
20260831021544 89 109 1.0 0.0 0.00 0.00 0.00 45 1009.0
20260831020020 90 109 1.0 0.0 0.00 0.00 0.00 45 1008.7
20260831014521 90 107 2.0 0.0 0.00 0.00 0.00 45 1008.6
20260831013020 91 122 2.0 0.0 0.00 0.00 0.00 43 1008.4
20260831011518 92 123 1.0 0.0 0.00 0.00 0.00 42 1008.2
20260831010038 93 123 1.0 0.0 0.00 0.00 0.00 41 1008.1
20260831004518 94 122 2.0 0.0 0.00 0.00 0.00 40 1008.1
20260831003018 94 112 3.0 0.0 0.00 0.00 0.00 39 1008.0
20260831001529 95 125 4.0 0.0 0.00 0.00 0.00 38 1008.0
20260831000016 96 140 5.0 0.0 0.00 0.00 0.00 35 1008.2
20260830234516 98 123 5.0 0.0 0.00 0.00 0.00 35 1008.1
20260830233016 98 138 4.0 0.0 0.00 0.00 0.00 34 1008.1
20260830231526 98 153 5.0 0.0 0.00 0.00 0.00 32 1008.3
20260830230013 97 164 6.0 0.0 0.00 0.00 0.00 33 1008.4
20260830224513 99 171 6.0 0.0 0.00 0.00 0.00 31 1008.3
20260830223018 97 105 4.0 0.0 0.00 0.00 0.00 33 1008.5
20260830221511 98 129 5.0 0.0 0.00 0.00 0.00 33 1008.6
20260830220013 98 150 4.0 0.0 0.00 0.00 0.00 33 1008.6
20260830214510 99 129 5.0 0.0 0.00 0.00 0.00 32 1008.6
20260830213011 99 121 6.0 0.0 0.00 0.00 0.00 33 1008.6
20260830211518 100 126 5.0 0.0 0.00 0.00 0.00 32 1009.0
20260830210011 99 148 5.0 0.0 0.00 0.00 0.00 30 1009.1
20260830204506 99 110 5.0 0.0 0.00 0.00 0.00 31 1009.4
20260830203009 99 136 4.0 0.0 0.00 0.00 0.00 32 1009.6
20260830201505 99 148 5.0 0.0 0.00 0.00 0.00 30 1009.7
20260830200002 98 132 6.0 0.0 0.00 0.00 0.00 33 1009.9
20260830194501 99 162 5.0 0.0 0.00 0.00 0.00 33 1010.1
20260830193059 98 126 5.0 0.0 0.00 0.00 0.00 34 1010.3
20260830191559 97 119 6.0 0.0 0.00 0.00 0.00 35 1010.5
20260830190156 98 157 5.0 0.0 0.00 0.00 0.00 36 1010.7
20260830184557 97 161 5.0 0.0 0.00 0.00 0.00 37 1010.9
20260830183113 97 159 6.0 0.0 0.00 0.00 0.00 37 1011.2
20260830181557 97 221 7.0 0.0 0.00 0.00 0.00 37 1011.2
20260830180107 97 140 6.0 0.0 0.00 0.00 0.00 38 1011.7
20260830174555 96 167 7.0 0.0 0.00 0.00 0.00 38 1011.8
20260830173114 95 142 5.0 0.0 0.00 0.00 0.00 40 1012.1
20260830171559 95 149 5.0 0.0 0.00 0.00 0.00 39 1012.3
20260830170046 94 109 6.0 0.0 0.00 0.00 0.00 42 1012.4
20260830164544 94 171 5.0 0.0 0.00 0.00 0.00 42 1012.7